owner,sensor,date,latitude,longitude,vertical_datum,sea_water_temperature,qcFlag 
FWRI,ioos:station:FWRI:NPD:2,2013-10-01T00:59:00Z,27.3338,-82.5794,0.0,28.96,2 
FWRI,ioos:station:FWRI:NPD:2,2013-10-01T01:59:00Z,27.3338,-82.5794,0.0,28.31,2 
FWRI,ioos:station:FWRI:NPD:2,2013-10-01T02:59:00Z,27.3338,-82.5794,0.0,27.84,2 
FWRI,ioos:station:FWRI:NPD:2,2013-10-01T03:59:00Z,27.3338,-82.5794,0.0,27.41,2 
FWRI,ioos:station:FWRI:NPD:2,2013-10-01T04:59:00Z,27.3338,-82.5794,0.0,26.8,2 
FWRI,ioos:station:FWRI:NPD:2,2013-10-01T05:59:00Z,27.3338,-82.5794,0.0,26.1,2 
FWRI,ioos:station:FWRI:NPD:2,2013-10-01T06:59:00Z,27.3338,-82.5794,0.0,25.37,2 
FWRI,ioos:station:FWRI:NPD:2,2013-10-01T07:59:00Z,27.3338,-82.5794,0.0,24.7,2 
FWRI,ioos:station:FWRI:NPD:2,2013-10-01T08:59:00Z,27.3338,-82.5794,0.0,24.16,2 
FWRI,ioos:station:FWRI:NPD:2,2013-10-01T09:59:00Z,27.3338,-82.5794,0.0,23.69,2 
FWRI,ioos:station:FWRI:NPD:2,2013-10-01T10:59:00Z,27.3338,-82.5794,0.0,23.31,2 
FWRI,ioos:station:FWRI:NPD:2,2013-10-01T11:59:00Z,27.3338,-82.5794,0.0,23.02,2 
FWRI,ioos:station:FWRI:NPD:2,2013-10-01T12:59:00Z,27.3338,-82.5794,0.0,23.1,2 
FWRI,ioos:station:FWRI:NPD:2,2013-10-01T13:59:00Z,27.3338,-82.5794,0.0,25.05,2 
FWRI,ioos:station:FWRI:NPD:2,2013-10-01T14:59:00Z,27.3338,-82.5794,0.0,26.36,2 
FWRI,ioos:station:FWRI:NPD:2,2013-10-01T15:59:00Z,27.3338,-82.5794,0.0,28.75,2 
FWRI,ioos:station:FWRI:NPD:2,2013-10-01T16:59:00Z,27.3338,-82.5794,0.0,31.93,2 
FWRI,ioos:station:FWRI:NPD:2,2013-10-01T17:59:00Z,27.3338,-82.5794,0.0,34.18,2 
FWRI,ioos:station:FWRI:NPD:2,2013-10-01T18:59:00Z,27.3338,-82.5794,0.0,35.79,2 
FWRI,ioos:station:FWRI:NPD:2,2013-10-01T19:59:00Z,27.3338,-82.5794,0.0,36.55,2 
FWRI,ioos:station:FWRI:NPD:2,2013-10-01T20:59:00Z,27.3338,-82.5794,0.0,36.56,2 
FWRI,ioos:station:FWRI:NPD:2,2013-10-01T21:59:00Z,27.3338,-82.5794,0.0,35.8,2 
FWRI,ioos:station:FWRI:NPD:2,2013-10-01T22:59:00Z,27.3338,-82.5794,0.0,34.67,2 
FWRI,ioos:station:FWRI:NPD:2,2013-10-01T23:59:00Z,27.3338,-82.5794,0.0,32.83,2 
FWRI,ioos:station:FWRI:NPD:2,2013-10-02T00:59:00Z,27.3338,-82.5794,0.0,31.17,2 
FWRI,ioos:station:FWRI:NPD:2,2013-10-02T01:59:00Z,27.3338,-82.5794,0.0,29.86,2 
FWRI,ioos:station:FWRI:NPD:2,2013-10-02T02:59:00Z,27.3338,-82.5794,0.0,28.71,2 
FWRI,ioos:station:FWRI:NPD:2,2013-10-02T03:59:00Z,27.3338,-82.5794,0.0,27.67,2 
FWRI,ioos:station:FWRI:NPD:2,2013-10-02T04:59:00Z,27.3338,-82.5794,0.0,26.77,2 
FWRI,ioos:station:FWRI:NPD:2,2013-10-02T05:59:00Z,27.3338,-82.5794,0.0,25.97,2 
FWRI,ioos:station:FWRI:NPD:2,2013-10-02T06:59:00Z,27.3338,-82.5794,0.0,25.28,2 
FWRI,ioos:station:FWRI:NPD:2,2013-10-02T07:59:00Z,27.3338,-82.5794,0.0,24.66,2 
FWRI,ioos:station:FWRI:NPD:2,2013-10-02T08:59:00Z,27.3338,-82.5794,0.0,24.12,2 
FWRI,ioos:station:FWRI:NPD:2,2013-10-02T09:59:00Z,27.3338,-82.5794,0.0,27.3,2 
FWRI,ioos:station:FWRI:NPD:2,2013-10-02T10:59:00Z,27.3338,-82.5794,0.0,27.1,2 
FWRI,ioos:station:FWRI:NPD:2,2013-10-02T11:59:00Z,27.3338,-82.5794,0.0,27.29,2 
FWRI,ioos:station:FWRI:NPD:2,2013-10-02T12:59:00Z,27.3338,-82.5794,0.0,27.45,2 
FWRI,ioos:station:FWRI:NPD:2,2013-10-02T13:59:00Z,27.3338,-82.5794,0.0,27.98,2 
FWRI,ioos:station:FWRI:NPD:2,2013-10-02T14:59:00Z,27.3338,-82.5794,0.0,28.2,2 
FWRI,ioos:station:FWRI:NPD:2,2013-10-02T15:59:00Z,27.3338,-82.5794,0.0,28.38,2 
FWRI,ioos:station:FWRI:NPD:2,2013-10-02T16:59:00Z,27.3338,-82.5794,0.0,28.6,2 
FWRI,ioos:station:FWRI:NPD:2,2013-10-02T17:59:00Z,27.3338,-82.5794,0.0,28.81,2 
FWRI,ioos:station:FWRI:NPD:2,2013-10-02T18:59:00Z,27.3338,-82.5794,0.0,28.99,2 
FWRI,ioos:station:FWRI:NPD:2,2013-10-02T19:59:00Z,27.3338,-82.5794,0.0,29.09,2 
FWRI,ioos:station:FWRI:NPD:2,2013-10-02T20:59:00Z,27.3338,-82.5794,0.0,29.14,2 
FWRI,ioos:station:FWRI:NPD:2,2013-10-02T21:59:00Z,27.3338,-82.5794,0.0,29.03,2 
FWRI,ioos:station:FWRI:NPD:2,2013-10-02T22:59:00Z,27.3338,-82.5794,0.0,28.82,2 
FWRI,ioos:station:FWRI:NPD:2,2013-10-02T23:59:00Z,27.3338,-82.5794,0.0,28.68,2 
FWRI,ioos:station:FWRI:NPD:2,2013-10-03T00:59:00Z,27.3338,-82.5794,0.0,28.52,2 
FWRI,ioos:station:FWRI:NPD:2,2013-10-03T01:59:00Z,27.3338,-82.5794,0.0,28.35,2 
FWRI,ioos:station:FWRI:NPD:2,2013-10-03T02:59:00Z,27.3338,-82.5794,0.0,28.21,2 
FWRI,ioos:station:FWRI:NPD:2,2013-10-03T03:59:00Z,27.3338,-82.5794,0.0,28.1,2 
FWRI,ioos:station:FWRI:NPD:2,2013-10-03T04:59:00Z,27.3338,-82.5794,0.0,27.99,2 
FWRI,ioos:station:FWRI:NPD:2,2013-10-03T05:59:00Z,27.3338,-82.5794,0.0,27.92,2 
FWRI,ioos:station:FWRI:NPD:2,2013-10-03T06:59:00Z,27.3338,-82.5794,0.0,27.8,2 
FWRI,ioos:station:FWRI:NPD:2,2013-10-03T07:59:00Z,27.3338,-82.5794,0.0,27.55,2 
FWRI,ioos:station:FWRI:NPD:2,2013-10-03T08:59:00Z,27.3338,-82.5794,0.0,27.38,2 
FWRI,ioos:station:FWRI:NPD:2,2013-10-03T09:59:00Z,27.3338,-82.5794,0.0,27.34,2 
FWRI,ioos:station:FWRI:NPD:2,2013-10-03T10:59:00Z,27.3338,-82.5794,0.0,27.2,2 
FWRI,ioos:station:FWRI:NPD:2,2013-10-03T11:59:00Z,27.3338,-82.5794,0.0,24.7,2 
FWRI,ioos:station:FWRI:NPD:2,2013-10-03T12:59:00Z,27.3338,-82.5794,0.0,24.16,2 
FWRI,ioos:station:FWRI:NPD:2,2013-10-03T13:59:00Z,27.3338,-82.5794,0.0,27.02,2 
FWRI,ioos:station:FWRI:NPD:2,2013-10-03T14:59:00Z,27.3338,-82.5794,0.0,28.36,2 
 
DISCLAIMER: The Gulf of Mexico Coastal and Ocean Observing (GCOOS) Data Portal aggregates data from the regional data providers for the convenience of all data users. Data published on this website should not be used for navigation or certain other uses as we cannot guarantee data accuracy or availability. The data and delivery services are provided 'as is' without warranty of any kind. Data Source: Gulf of Mexico Coastal Ocean Observing System Data Portal (http://data.gcoos.org/) 
